Volver al catálogo

STARLING 2

ActivoCienciaPO
NORAD 57387·PAYLOAD·🇺🇸 United States

Lanzado Jul 18, 2023 desde Rocket Lab Launch Complex 1

Loading…

Próximos Pases (próximas 24 horas)

TLE

ActualizadoSource: Space-Track

Época: Sep 14, 2026, 15:01 UTC

1 57387U 23100B   26257.62633330  .00000926  00000-0  67874-4 0  9997
2 57387  99.5053 296.2500 0005258 183.5499 176.5686 15.07033103173379

Sigue STARLING 2 en tiempo real con AllMySat

Download on the App Store